Location: Menands
(42.6920°N, 73.7246°W)
Time: 08:03:24
(UTC+00:00)

YAOGAN 1 - Pass Details

Date: 18 February 2026
Orbit: 604 x 607 km, 97.8° (Epoch: 8 March)

Event Time Altitude Azimuth Distance (km) Brightness Sun altitude
Rises 23:46:23 0° 182° (S) 2,848 6.0 -14.5°
Reaches altitude 10° 23:48:37 10° 189° (S) 1,949 5.2 -15.0°
Maximum altitude 23:52:40 44° 261° (W) 849 3.8 -15.7°
Drops below altitude 10° 23:56:45 10° 334° (NNW) 1,963 5.5 -16.5°
Sets 23:59:01 0° 341° (NNW) 2,871 6.2 -16.9°
